Boston, MA

1:47 PM EDT on May 22, 2017 (GMT -0400)
Logan International

Weather History for KBOS - October, 2013

Change the Weather History Date:

Tuesday, October 29, 2013

  Actual Average Record
Temperature  
Mean Temperature 46 °F 50 °F  
Max Temperature 57 °F 57 °F 79 °F (1918)
Min Temperature 35 °F 43 °F 26 °F (1876)
Degree Days  
Heating Degree Days 19 15  
Month to date heating degree days 231 319  
Since 1 July heating degree days 316 416  
Cooling Degree Days 0 0  
Month to date cooling degree days 16 6  
Year to date cooling degree days 919 746  
Moisture  
Dew Point 27 °F    
Average Humidity 63    
Maximum Humidity 79    
Minimum Humidity 46    
Precipitation  
Precipitation 0.00 in 0.12 in 1.49 in (2003)
Month to date precipitation 0.53 3.69  
Year to date precipitation 32.94 35.75  
Sea Level Pressure  
Sea Level Pressure 30.40 in    
Wind  
Wind Speed 7 mph (NNE)    
Max Wind Speed 12 mph    
Max Gust Speed 15 mph    
Visibility 10 miles    
Events      
T = Trace of Precipitation, MM = Missing Value Source: NWS Daily Summary

Daily Weather History Graph

Daily Weather History Graph

Search for Another Location

Airport or City:

Trip Planner

Search our weather history database for the weather conditions in past years. The results will help you decide how hot, cold, wet, or windy it might be!

Date:

Astronomy

Oct. 29, 2013 Rise Set
Actual Time 7:13 AM EDT 5:40 PM EDT
Civil Twilight 6:44 AM EDT 6:09 PM EDT
Nautical Twilight 6:11 AM EDT 6:42 PM EDT
Astronomical Twilight 5:39 AM EDT 7:15 PM EDT
Moon 1:55 AM EDT (10/29) 2:58 PM EDT (10/29)
Length of Visible Light 11h 25m
Length of Day
10h 27m
Waning Crescent, 25% of the Moon is Illuminated
Oct 29
Waning Crescent
Nov 3
New
Nov 10
First Quarter
Nov 17
Full
Nov 25
Last Quarter

Hourly Weather History & Observations

Time (EDT) Temp. Windchill Dew Point Humidity Pressure Visibility Wind Dir Wind Speed Gust Speed Precip Events Conditions
12:54 AM 39.9 °F 35.1 °F 21.0 °F 47% 30.37 in 10.0 mi NNW 6.9 mph - N/A   Partly Cloudy
1:54 AM 39.0 °F 34.0 °F 21.0 °F 49% 30.38 in 10.0 mi NNW 6.9 mph - N/A   Partly Cloudy
2:54 AM 37.9 °F 31.5 °F 21.0 °F 51% 30.38 in 10.0 mi NNW 9.2 mph - N/A   Partly Cloudy
3:54 AM 37.0 °F 31.0 °F 21.0 °F 52% 30.38 in 10.0 mi NNW 8.1 mph - N/A   Partly Cloudy
4:54 AM 36.0 °F 29.0 °F 21.0 °F 55% 30.40 in 10.0 mi NNW 9.2 mph - N/A   Partly Cloudy
5:54 AM 36.0 °F 29.6 °F 21.9 °F 57% 30.42 in 10.0 mi NNW 8.1 mph - N/A   Clear
6:54 AM 36.0 °F 29.6 °F 21.9 °F 57% 30.42 in 10.0 mi NNW 8.1 mph - N/A   Scattered Clouds
7:54 AM 37.0 °F 31.0 °F 21.9 °F 54% 30.43 in 10.0 mi NNW 8.1 mph - N/A   Scattered Clouds
8:54 AM 39.0 °F 33.4 °F 24.1 °F 55% 30.44 in 10.0 mi NNW 8.1 mph - N/A   Mostly Cloudy
9:54 AM 41.0 °F 35.8 °F 25.0 °F 53% 30.45 in 10.0 mi NNW 8.1 mph - N/A   Scattered Clouds
10:54 AM 45.0 °F 41.2 °F 27.0 °F 49% 30.43 in 10.0 mi North 6.9 mph - N/A   Scattered Clouds
11:54 AM 48.0 °F - 28.9 °F 48% 30.42 in 10.0 mi NE 4.6 mph - N/A   Scattered Clouds
12:54 PM 48.2 °F - 30.2 °F 50% 30.40 in 10.0 mi East 4.6 mph - N/A   Partly Cloudy
1:54 PM 46.9 °F - 28.9 °F 50% 30.39 in 10.0 mi Variable 5.8 mph - N/A   Scattered Clouds
2:54 PM 46.9 °F - 30.9 °F 54% 30.38 in 10.0 mi East 9.2 mph - N/A   Scattered Clouds
3:54 PM 46.0 °F 41.9 °F 32.0 °F 58% 30.39 in 10.0 mi East 8.1 mph - N/A   Scattered Clouds
4:54 PM 45.0 °F 40.6 °F 30.9 °F 58% 30.40 in 10.0 mi ESE 8.1 mph - N/A   Scattered Clouds
5:54 PM 44.1 °F 39.5 °F 32.0 °F 63% 30.39 in 10.0 mi ESE 8.1 mph - N/A   Scattered Clouds
6:54 PM 43.0 °F 38.2 °F 32.0 °F 65% 30.40 in 10.0 mi SE 8.1 mph - N/A   Clear
7:54 PM 43.0 °F 40.3 °F 32.0 °F 65% 30.41 in 10.0 mi SSE 4.6 mph - N/A   Partly Cloudy
8:54 PM 41.0 °F 37.1 °F 32.0 °F 70% 30.40 in 10.0 mi SSE 5.8 mph - N/A   Partly Cloudy
9:54 PM 41.0 °F 37.1 °F 33.1 °F 73% 30.39 in 10.0 mi South 5.8 mph - N/A   Partly Cloudy
10:54 PM 41.0 °F 38.0 °F 34.0 °F 76% 30.39 in 10.0 mi SSW 4.6 mph - N/A   Partly Cloudy
11:54 PM 39.9 °F 35.8 °F 34.0 °F 79% 30.38 in 10.0 mi SSW 5.8 mph - N/A   Partly Cloudy